Greenville, MS

7:35 AM CST on December 14, 2019 (GMT -0600)
Mid Delta Regional

Weather History for KGLH - July, 2019

Change the Weather History Date:

Thursday, July 18, 2019

  Actual Average Record
Temperature  
Mean Temperature 84 °F 82 °F  
Max Temperature 92 °F 92 °F 105 °F (1980)
Min Temperature 75 °F 72 °F 60 °F (1987)
Degree Days  
Heating Degree Days 0 0  
Month to date heating degree days 0 0  
Since 1 June heating degree days 0 0  
Since 1 July heating degree days 0 0  
Cooling Degree Days 19 17  
Month to date cooling degree days 315 304  
Year to date cooling degree days 1121 1046  
Since 1 June cooling degree days 725 724  
Growing Degree Days 33 (Base 50)    
Moisture  
Dew Point 75 °F    
Average Humidity 75    
Maximum Humidity 94    
Minimum Humidity 56    
Precipitation  
Precipitation 0.00 in 0.13 in 4.28 in (2014)
Month to date precipitation 3.29 2.50  
Year to date precipitation 54.97 30.80  
Sea Level Pressure  
Sea Level Pressure 30.03 in    
Wind  
Wind Speed 7 mph (SSW)    
Max Wind Speed 15 mph    
Max Gust Speed 19 mph    
Visibility 10 miles    
Events      
T = Trace of Precipitation, MM = Missing Value Source: NWS Daily Summary

Daily Weather History Graph

Daily Weather History Graph

Search for Another Location

Airport or City:

Astronomy

Jul. 18, 2019 Rise Set
Actual Time 6:06 AM CDT 8:13 PM CDT
Civil Twilight 5:38 AM CDT 8:41 PM CDT
Nautical Twilight 5:04 AM CDT 9:15 PM CDT
Astronomical Twilight 4:27 AM CDT 9:52 PM CDT
Moon 9:42 PM CDT (7/18) 7:34 AM CDT (7/18)
Length of Visible Light 15h 02m
Length of Day
14h 06m
Full, 97% of the Moon is Illuminated
Jul 18
Full
Jul 24
Last Quarter
Jul 31
New
Aug 7
First Quarter
Aug 15
Full

Hourly Weather History & Observations

Time (CDT) Temp. Heat Index Dew Point Humidity Pressure Visibility Wind Dir Wind Speed Gust Speed Precip Events Conditions
12:53 AM 78.1 °F - 75.0 °F 90% 30.06 in 10.0 mi South 3.5 mph - N/A   Clear
1:53 AM 78.1 °F - 75.0 °F 90% 30.05 in 10.0 mi South 4.6 mph - N/A   Clear
2:53 AM 77.0 °F - 75.0 °F 94% 30.04 in 10.0 mi South 5.8 mph - N/A   Clear
3:53 AM 75.9 °F - 73.9 °F 94% 30.02 in 9.0 mi South 3.5 mph - N/A   Clear
4:53 AM 75.9 °F - 73.9 °F 94% 30.05 in 9.0 mi South 4.6 mph - N/A   Clear
5:53 AM 77.0 °F - 73.9 °F 90% 30.06 in 10.0 mi SW 5.8 mph - N/A   Clear
6:53 AM 79.0 °F - 75.0 °F 88% 30.06 in 10.0 mi WSW 3.5 mph - N/A   Clear
7:53 AM 80.1 °F 85.4 °F 75.9 °F 87% 30.06 in 10.0 mi SSW 9.2 mph - N/A   Clear
8:53 AM 82.0 °F 90.2 °F 77.0 °F 85% 30.06 in 10.0 mi WSW 9.2 mph - N/A   Clear
9:53 AM 86.0 °F 96.9 °F 77.0 °F 74% 30.06 in 10.0 mi SW 10.4 mph - N/A   Clear
10:53 AM 88.0 °F 101.3 °F 78.1 °F 72% 30.06 in 10.0 mi SW 9.2 mph - N/A   Partly Cloudy
11:53 AM 89.1 °F 99.1 °F 75.0 °F 63% 30.06 in 10.0 mi SW 9.2 mph - N/A   Clear
12:53 PM 91.0 °F 102.9 °F 75.9 °F 61% 30.05 in 10.0 mi WSW 11.5 mph 18.4 mph N/A   Clear
1:53 PM 91.0 °F 101.6 °F 75.0 °F 59% 30.04 in 10.0 mi SW 11.5 mph - N/A   Clear
2:53 PM 91.9 °F 101.3 °F 73.9 °F 55% 30.03 in 10.0 mi SW 10.4 mph - N/A   Clear
3:53 PM 90.0 °F 101.3 °F 75.9 °F 63% 30.01 in 10.0 mi SSE 6.9 mph - N/A   Mostly Cloudy
4:53 PM 91.0 °F 100.4 °F 73.9 °F 57% 30.01 in 10.0 mi SW 11.5 mph - N/A   Partly Cloudy
5:53 PM 90.0 °F 99.0 °F 73.9 °F 59% 29.99 in 10.0 mi SSW 9.2 mph - N/A   Partly Cloudy
6:53 PM 89.1 °F 99.1 °F 75.0 °F 63% 29.98 in 10.0 mi South 8.1 mph - N/A   Clear
7:53 PM 84.0 °F 93.7 °F 77.0 °F 79% 29.98 in 10.0 mi South 4.6 mph - N/A   Clear
8:53 PM 82.0 °F 89.4 °F 75.9 °F 82% 29.99 in 10.0 mi SSE 5.8 mph - N/A   Clear
9:53 PM 81.0 °F 87.9 °F 77.0 °F 88% 30.00 in 10.0 mi SSE 5.8 mph - N/A   Clear
10:53 PM 80.1 °F 85.4 °F 75.9 °F 87% 30.01 in 10.0 mi SSE 6.9 mph - N/A   Clear
11:53 PM 80.1 °F 85.4 °F 75.9 °F 87% 30.01 in 10.0 mi South 6.9 mph - N/A   Clear